FW9047 Weather Reports


time (UTC)temp
C
wind
direction
speed
KPH
gust
KPH
rain 1hr
cm
rain 24hr
cm
rain mn
cm
humidity
%
barometer
mb
20220811225703 26 322 1.6 3.2 0.00 0.00 0.00 52 1014.1
20220811225203 26 180 1.6 3.2 0.00 0.00 0.00 53 1014.2
20220811224203 26 180 3.2 8.0 0.00 0.00 0.00 53 1014.2
20220811221703 26 162 3.2 8.0 0.00 0.00 0.00 54 1014.4
20220811220203 26 202 3.2 4.8 0.00 0.00 0.00 54 1014.6
20220811215703 26 217 3.2 4.8 0.00 0.00 0.00 54 1014.6
20220811214703 26 180 3.2 4.8 0.00 0.00 0.00 54 1014.6
20220811213703 26 135 3.2 4.8 0.00 0.00 0.00 54 1014.6
20220811210204 25 135 1.6 4.8 0.00 0.00 0.00 58 1015.1
20220811205704 25 135 3.2 4.8 0.00 0.00 0.00 59 1015.1
20220811204204 25 248 4.8 9.7 0.00 0.00 0.00 60 1014.9
20220811203203 26 135 4.8 12.9 0.00 0.00 0.00 59 1015.0
20220811202703 26 81 6.4 12.9 0.00 0.00 0.00 59 1015.0
20220811202203 26 45 8.0 11.3 0.00 0.00 0.00 61 1015.0
20220811201703 26 74 8.0 12.9 0.00 0.00 0.00 59 1015.0
20220811201203 27 225 4.8 8.0 0.00 0.00 0.00 54 1014.5
20220811200204 27 0 1.6 3.2 0.00 0.00 0.00 50 1014.5
20220811195703 27 342 1.6 3.2 0.00 0.00 0.00 50 1014.5
20220811195204 27 22 1.6 1.6 0.00 0.00 0.00 50 1014.4
20220811194204 27 315 0.0 3.2 0.00 0.00 0.00 48 1014.4
20220811193204 27 158 0.0 1.6 0.00 0.00 0.00 48 1014.3
20220811190203 27 0 0.0 0.0 0.00 0.00 0.00 49 1014.1
20220811185704 28 166 0.0 3.2 0.00 0.00 0.00 49 1014.1
20220811185203 28 315 0.0 3.2 0.00 0.00 0.00 49 1013.9
20220811184704 27 356 0.0 3.2 0.00 0.00 0.00 48 1013.9
20220811183704 27 270 1.6 3.2 0.00 0.00 0.00 47 1013.9
20220811182704 27 194 1.6 4.8 0.00 0.00 0.00 47 1013.9
20220811181204 28 180 1.6 3.2 0.00 0.00 0.00 46 1013.9
20220811175204 27 292 3.2 8.0 0.00 0.00 0.00 47 1014.0
20220811174204 27 180 9.7 12.9 0.00 0.00 0.00 48 1014.0
20220811172203 28 158 8.0 11.3 0.00 0.00 0.00 46 1014.3
20220811171704 28 180 9.7 11.3 0.00 0.00 0.00 45 1014.3
20220811170204 30 180 3.2 16.1 0.00 0.00 0.00 43 1014.4
20220811165704 30 177 0.0 8.0 0.00 0.00 0.00 44 1014.4
20220811164703 30 126 1.6 3.2 0.00 0.00 0.00 45 1014.2
20220811164204 30 270 3.2 3.2 0.00 0.00 0.00 45 1014.2
20220811163704 30 292 3.2 9.7 0.00 0.00 0.00 45 1014.2
20220811163203 30 292 3.2 9.7 0.00 0.00 0.00 46 1014.4
20220811161202 31 22 3.2 8.0 0.00 0.00 0.00 44 1014.6
20220811160702 31 328 3.2 9.7 0.00 0.00 0.00 44 1014.6
20220811155202 32 292 4.8 4.8 0.00 0.00 0.00 44 1014.6
20220811154202 32 45 3.2 11.3 0.00 0.00 0.00 43 1014.6
20220811153702 32 0 3.2 8.0 0.00 0.00 0.00 43 1014.6
20220811152702 32 328 4.8 12.9 0.00 0.00 0.00 45 1014.1
20220811151703 32 282 3.2 11.3 0.00 0.00 0.00 45 1014.1
20220811150202 31 292 8.0 11.3 0.00 0.00 0.00 45 1014.1
20220811144702 31 264 9.7 11.3 0.00 0.00 0.00 47 1013.6
20220811144203 31 338 8.0 9.7 0.00 0.00 0.00 47 1013.6
20220811143703 32 348 4.8 16.1 0.00 0.00 0.00 47 1013.6
20220811142202 32 0 8.0 12.9 0.00 0.00 0.00 45 1013.6
20220811140702 32 50 8.0 14.5 0.00 0.00 0.00 40 1013.6
20220811140202 32 0 8.0 11.3 0.00 0.00 0.00 39 1013.6
20220811135202 32 0 8.0 12.9 0.00 0.00 0.00 40 1013.3
20220811134703 32 325 9.7 11.3 0.00 0.00 0.00 38 1013.3
20220811134202 32 292 8.0 12.9 0.00 0.00 0.00 40 1013.3
20220811133702 32 78 8.0 11.3 0.00 0.00 0.00 43 1013.3
20220811132702 31 0 11.3 16.1 0.00 0.00 0.00 41 1013.3
20220811131703 31 352 12.9 12.9 0.00 0.00 0.00 42 1013.3
20220811131202 31 0 11.3 14.5 0.00 0.00 0.00 42 1013.5
20220811125203 32 90 9.7 11.3 0.00 0.00 0.00 41 1013.5
20220811124703 31 0 11.3 14.5 0.00 0.00 0.00 42 1013.5
20220811124203 32 0 9.7 16.1 0.00 0.00 0.00 41 1013.5
20220811122702 31 0 12.9 19.3 0.00 0.00 0.00 40 1013.8
20220811122203 31 0 12.9 16.1 0.00 0.00 0.00 41 1013.8
20220811115703 31 338 11.3 19.3 0.00 0.00 0.00 37 1014.0
20220811114202 31 45 11.3 12.9 0.00 0.00 0.00 41 1014.2
20220811113702 31 0 11.3 16.1 0.00 0.00 0.00 39 1014.2
20220811112703 31 8 11.3 14.5 0.00 0.00 0.00 38 1014.1
20220811112202 31 0 11.3 19.3 0.00 0.00 0.00 40 1014.1
20220811111703 31 0 11.3 19.3 0.00 0.00 0.00 39 1014.1
20220811111202 31 22 9.7 16.1 0.00 0.00 0.00 37 1014.6
20220811110702 31 0 9.7 12.9 0.00 0.00 0.00 39 1014.6
20220811110203 31 22 11.3 11.3 0.00 0.00 0.00 38 1014.6
20220811104703 31 352 4.8 11.3 0.00 0.00 0.00 44 1014.6
20220811103703 31 351 4.8 8.0 0.00 0.00 0.00 46 1014.6
20220811102703 30 346 6.4 8.0 0.00 0.00 0.00 47 1014.9
20220811102202 30 338 8.0 11.3 0.00 0.00 0.00 48 1014.9
20220811094203 29 338 6.4 11.3 0.00 0.00 0.00 47 1014.9
20220811093703 29 284 8.0 8.0 0.00 0.00 0.00 49 1014.9
20220811092703 29 0 8.0 11.3 0.00 0.00 0.00 48 1014.9
20220811091702 28 344 9.7 12.9 0.00 0.00 0.00 49 1014.9
20220811091203 28 45 9.7 14.5 0.00 0.00 0.00 51 1014.8
20220811090703 28 344 8.0 11.3 0.00 0.00 0.00 53 1014.8
20220811085702 28 0 9.7 11.3 0.00 0.00 0.00 52 1014.8
20220811085202 28 0 9.7 12.9 0.00 0.00 0.00 52 1014.9
20220811084203 28 22 9.7 11.3 0.00 0.00 0.00 53 1014.9
20220811083202 27 0 8.0 11.3 0.00 0.00 0.00 51 1015.2
20220811082703 27 49 8.0 11.3 0.00 0.00 0.00 53 1015.2
20220811081203 27 22 8.0 12.9 0.00 0.00 0.00 52 1015.0
20220811080703 27 7 8.0 14.5 0.00 0.00 0.00 52 1015.0
20220811075702 27 38 9.7 14.5 0.00 0.00 0.00 51 1015.0
20220811071703 27 151 8.0 14.5 0.00 0.00 0.00 48 1015.0
20220811071202 27 22 8.0 12.9 0.00 0.00 0.00 49 1014.6
20220811070203 27 68 8.0 11.3 0.00 0.00 0.00 50 1014.6
20220811064703 26 298 4.8 11.3 0.00 0.00 0.00 48 1014.7
20220811064203 26 22 3.2 11.3 0.00 0.00 0.00 47 1014.7
20220811062703 26 61 3.2 8.0 0.00 0.00 0.00 48 1014.6
20220811062203 26 135 3.2 8.0 0.00 0.00 0.00 47 1014.6
20220811061203 26 45 1.6 4.8 0.00 0.00 0.00 48 1014.4
20220811055703 26 68 1.6 3.2 0.00 0.00 0.00 48 1014.4
20220811054702 26 165 1.6 3.2 0.00 0.00 0.00 47 1014.4
20220811054202 26 90 3.2 4.8 0.00 0.00 0.00 47 1014.4
20220811052703 26 154 1.6 4.8 0.00 0.00 0.00 47 1014.1
20220811051703 26 77 3.2 3.2 0.00 0.00 0.00 47 1014.1
20220811051203 26 135 3.2 4.8 0.00 0.00 0.00 47 1014.1
20220811050203 26 180 3.2 8.0 0.00 0.00 0.00 47 1014.1
20220811045702 26 167 3.2 8.0 0.00 0.00 0.00 47 1014.1
20220811045203 26 180 1.6 4.8 0.00 0.00 0.00 48 1014.1
20220811044703 25 133 1.6 4.8 0.00 0.00 0.00 48 1014.1
20220811044203 25 180 1.6 3.2 0.00 0.00 0.00 47 1014.1
20220811043703 25 166 1.6 4.8 0.00 0.00 0.00 48 1014.1
20220811041203 25 135 1.6 4.8 0.00 0.00 0.00 48 1013.9
20220811040203 25 45 1.6 4.8 0.00 0.00 0.00 48 1013.9
20220811034703 25 168 3.2 9.7 0.00 0.00 0.00 48 1013.9
20220811033203 25 180 3.2 8.0 0.00 0.00 0.00 49 1014.2
20220811032203 25 0 3.2 8.0 0.00 0.00 0.00 49 1014.2
20220811030704 26 126 3.2 9.7 0.00 0.00 0.00 49 1013.9
20220811030203 26 112 3.2 8.0 0.00 0.00 0.00 49 1013.9
20220811025703 26 169 3.2 8.0 0.00 0.00 0.00 50 1013.9
20220811024703 26 113 3.2 9.7 0.00 0.00 0.00 50 1013.9
20220811024203 26 158 1.6 8.0 0.00 0.00 0.00 49 1013.9
20220811023203 26 180 3.2 4.8 0.00 0.00 0.00 49 1014.1
20220811021703 26 135 3.2 8.0 0.00 0.00 0.00 49 1014.1
20220811021204 26 180 1.6 4.8 0.00 0.00 0.00 48 1014.3
20220811013703 26 160 0.0 0.0 0.00 0.00 0.00 46 1014.0
20220811012203 26 135 1.6 0.0 0.00 0.00 0.00 45 1014.2
20220811011703 26 157 3.2 3.2 0.00 0.00 0.00 45 1014.2
20220811011204 26 158 3.2 4.8 0.00 0.00 0.00 44 1014.1
20220811010703 26 172 3.2 4.8 0.00 0.00 0.00 44 1014.1
20220811005703 26 180 3.2 8.0 0.00 0.00 0.00 45 1014.1
20220811005203 26 135 3.2 4.8 0.00 0.00 0.00 45 1013.9
20220811004203 26 158 3.2 1.6 0.00 0.00 0.00 44 1013.9
20220811002703 27 144 3.2 11.3 0.00 0.00 0.00 43 1014.3
20220811001703 27 233 3.2 4.8 0.00 0.00 0.00 43 1014.3
20220811001203 27 90 3.2 4.8 0.00 0.00 0.00 43 1014.2
20220811000703 27 163 1.6 9.7 0.00 0.00 0.00 43 1014.2
20220810234203 27 180 3.2 8.0 0.00 0.00 0.00 42 1014.2
20220810232703 27 151 4.8 11.3 0.00 0.00 0.00 42 1014.2
20220810230203 27 68 3.2 4.8 0.00 0.00 0.00 41 1014.4